DW0275 Weather Reports


Display with metric or nautical units.
time (UTC)temp
F
wind
direction
speed
MPH
gust
MPH
rain 1hr
in
rain 24hr
in
rain mn
in
humidity
%
barometer
mb
20260901110037 77 350 0.0 0.0 0.00 0.00 0.00 93 1015.6
20260901105820 77 350 0.0 0.0 0.00 0.00 0.00 93 1015.8
20260901105319 78 350 0.0 0.0 0.00 0.00 0.00 93 1015.6
20260901104817 78 350 0.0 0.0 0.00 0.00 0.00 93 1015.8
20260901104521 77 350 0.0 0.0 0.00 0.00 0.00 92 1015.6
20260901104334 78 350 0.0 0.0 0.00 0.00 0.00 92 1015.8
20260901103831 78 350 0.0 1.0 0.00 0.00 0.00 93 1015.7
20260901103327 78 350 0.0 0.0 0.00 0.00 0.00 93 1015.8
20260901103011 77 350 0.0 0.0 0.00 0.00 0.00 92 1015.6
20260901102822 78 350 0.0 1.0 0.00 0.00 0.00 93 1015.8
20260901102338 78 350 0.0 1.0 0.00 0.00 0.00 93 1015.6
20260901101829 78 350 0.0 0.0 0.00 0.00 0.00 93 1015.7
20260901101532 77 350 0.0 1.0 0.00 0.00 0.00 93 1015.4
20260901101325 78 350 0.0 1.0 0.00 0.00 0.00 93 1015.7
20260901100843 78 350 0.0 1.0 0.00 0.00 0.00 93 1015.6
20260901100319 78 350 0.0 0.0 0.00 0.00 0.00 93 1015.6
20260901100056 77 350 0.0 0.0 0.00 0.00 0.00 93 1015.6
20260901095816 78 350 0.0 0.0 0.00 0.00 0.00 93 1015.8
20260901095333 78 351 0.0 0.0 0.00 0.00 0.00 93 1015.6
20260901094829 78 351 0.0 0.0 0.00 0.00 0.00 93 1015.6
20260901094539 77 351 0.0 0.0 0.00 0.00 0.00 93 1015.4
20260901094347 78 351 0.0 1.0 0.00 0.00 0.00 93 1015.5
20260901093823 78 351 0.0 1.0 0.00 0.00 0.00 93 1015.6
20260901093320 78 351 0.0 1.0 0.00 0.00 0.00 93 1015.4
20260901093003 77 351 0.0 1.0 0.00 0.00 0.00 93 1015.4
20260901092818 78 345 0.0 1.0 0.00 0.00 0.00 93 1015.5
20260901092315 78 349 0.0 1.0 0.00 0.00 0.00 93 1015.4
20260901091834 78 349 0.0 1.0 0.00 0.00 0.00 93 1015.4
20260901091547 77 349 0.0 0.0 0.00 0.00 0.00 93 1015.4
20260901091331 78 349 0.0 0.0 0.00 0.00 0.00 93 1015.5
20260901090826 78 349 0.0 0.0 0.00 0.00 0.00 93 1015.4
20260901090322 78 349 0.0 0.0 0.00 0.00 0.00 93 1015.5
20260901090039 77 349 0.0 0.0 0.00 0.00 0.00 93 1015.4
20260901085820 78 349 0.0 0.0 0.00 0.00 0.00 93 1015.5
20260901085336 78 349 0.0 0.0 0.00 0.00 0.00 93 1015.6
20260901084833 78 349 0.0 0.0 0.00 0.00 0.00 93 1015.7
20260901084559 77 349 0.0 0.0 0.00 0.00 0.00 93 1015.5
20260901084501 77 349 0.0 0.0 0.00 0.00 0.00 93 1015.6
20260901084330 78 349 0.0 0.0 0.00 0.00 0.00 93 1015.6
20260901083828 78 349 0.0 0.0 0.00 0.00 0.00 93 1015.6
20260901083325 78 349 0.0 0.0 0.00 0.00 0.00 93 1015.7
20260901083043 77 349 0.0 0.0 0.00 0.00 0.00 93 1015.6
20260901082840 78 349 0.0 0.0 0.00 0.00 0.00 93 1015.8
20260901082316 78 349 0.0 0.0 0.00 0.00 0.00 93 1015.6
20260901081839 78 349 0.0 0.0 0.00 0.00 0.00 93 1015.6
20260901081549 77 349 0.0 0.0 0.00 0.00 0.00 92 1015.6
20260901081354 78 349 0.0 0.0 0.00 0.00 0.00 93 1015.5
20260901080328 78 349 0.0 0.0 0.00 0.00 0.00 92 1015.5
20260901080021 77 349 0.0 0.0 0.00 0.00 0.00 92 1015.5
20260901075826 78 349 0.0 0.0 0.00 0.00 0.00 92 1015.6
20260901075341 78 349 0.0 0.0 0.00 0.00 0.00 92 1015.6
20260901074817 78 349 0.0 0.0 0.00 0.00 0.00 92 1015.8
20260901074543 78 349 0.0 0.0 0.00 0.00 0.00 92 1015.7
20260901074314 78 349 0.0 0.0 0.00 0.00 0.00 92 1015.8
20260901073833 78 349 0.0 0.0 0.00 0.00 0.00 92 1015.8
20260901073329 78 349 0.0 0.0 0.00 0.00 0.00 92 1015.9
20260901073029 78 349 0.0 0.0 0.00 0.00 0.00 92 1015.8
20260901072827 78 349 0.0 0.0 0.00 0.00 0.00 92 1015.9
20260901072339 78 349 0.0 0.0 0.00 0.00 0.00 92 1016.0
20260901071816 79 349 0.0 0.0 0.00 0.00 0.00 92 1016.1
20260901071551 78 349 0.0 0.0 0.00 0.00 0.00 92 1015.9
20260901071332 79 349 0.0 0.0 0.00 0.00 0.00 92 1016.0
20260901070829 79 349 0.0 0.0 0.00 0.00 0.00 92 1016.0
20260901070324 79 349 0.0 0.0 0.00 0.00 0.00 92 1016.1
20260901070034 79 349 0.0 0.0 0.00 0.00 0.00 92 1016.0
20260901065841 79 349 0.0 0.0 0.00 0.00 0.00 92 1016.1
20260901065336 79 345 0.0 0.0 0.00 0.00 0.00 92 1016.2
20260901064832 79 345 0.0 2.0 0.00 0.00 0.00 91 1016.0
20260901064537 79 3 0.0 2.0 0.00 0.00 0.00 91 1015.8
20260901064349 79 3 0.0 2.0 0.00 0.00 0.00 91 1016.0
20260901063825 79 110 0.0 0.0 0.00 0.00 0.00 91 1016.0
20260901063323 79 110 0.0 0.0 0.00 0.00 0.00 91 1016.1
20260901063110 78 110 0.0 0.0 0.00 0.00 0.00 91 1016.0
20260901063006 78 110 0.0 0.0 0.00 0.00 0.00 91 1016.0
20260901062820 79 110 0.0 0.0 0.00 0.00 0.00 91 1016.1
20260901062318 79 110 0.0 0.0 0.00 0.00 0.00 91 1016.1
20260901061815 79 110 0.0 0.0 0.00 0.00 0.00 91 1016.2
20260901061559 78 110 0.0 0.0 0.00 0.00 0.00 91 1016.0
20260901061332 79 110 0.0 0.0 0.00 0.00 0.00 91 1016.2
20260901060828 79 110 0.0 0.0 0.00 0.00 0.00 91 1016.2
20260901060345 79 110 0.0 0.0 0.00 0.00 0.00 91 1016.2
20260901060008 78 110 0.0 0.0 0.00 0.00 0.00 90 1016.0
20260901055841 79 110 0.0 0.0 0.00 0.00 0.00 90 1016.1
20260901055337 79 110 0.0 0.0 0.00 0.00 0.00 90 1016.3
20260901054833 79 110 0.0 0.0 0.00 0.00 0.00 90 1016.3
20260901054554 79 110 0.0 0.0 0.00 0.00 0.00 90 1016.2
20260901054351 79 110 0.0 0.0 0.00 0.00 0.00 90 1016.4
20260901053846 79 110 0.0 0.0 0.00 0.00 0.00 90 1016.5
20260901053320 79 110 0.0 0.0 0.00 0.00 0.00 90 1016.5
20260901053108 78 110 0.0 0.0 0.00 0.00 0.00 90 1016.3
20260901052819 79 128 0.0 0.0 0.00 0.00 0.00 90 1016.5
20260901052315 79 128 0.0 0.0 0.00 0.00 0.00 90 1016.4
20260901051830 79 128 0.0 0.0 0.00 0.00 0.00 90 1016.5
20260901051545 79 128 0.0 0.0 0.00 0.00 0.00 90 1016.4
20260901051327 79 128 0.0 0.0 0.00 0.00 0.00 90 1016.5
20260901050824 79 128 0.0 0.0 0.00 0.00 0.00 90 1016.5
20260901050323 79 128 0.0 0.0 0.00 0.00 0.00 90 1016.5
20260901050027 79 128 0.0 0.0 0.00 0.00 0.00 89 1016.5
20260901045819 79 128 0.0 0.0 0.00 0.00 0.00 89 1016.7
20260901045315 79 128 0.0 0.0 0.00 0.00 0.00 89 1016.8
20260901044832 79 128 0.0 0.0 0.00 0.00 0.00 89 1016.7
20260901044510 78 128 0.0 0.0 0.00 0.00 0.00 89 1016.8
20260901044328 79 128 0.0 0.0 0.00 0.00 0.00 89 1016.9
20260901043845 79 128 0.0 0.0 0.00 0.00 0.00 89 1017.0
20260901043320 79 128 0.0 0.0 0.00 0.00 0.00 89 1017.1
20260901043037 78 128 0.0 0.0 0.00 0.00 0.00 89 1016.9
20260901042816 79 128 0.0 0.0 0.00 0.00 0.00 89 1017.1
20260901042332 79 128 0.0 0.0 0.00 0.00 0.00 89 1017.2
20260901041830 79 128 0.0 0.0 0.00 0.00 0.00 89 1017.2
20260901041519 79 128 0.0 0.0 0.00 0.00 0.00 88 1017.2
20260901041326 80 128 0.0 0.0 0.00 0.00 0.00 88 1017.3
20260901040823 80 128 0.0 0.0 0.00 0.00 0.00 88 1017.2
20260901040318 80 128 0.0 0.0 0.00 0.00 0.00 88 1017.3
20260901040011 79 128 0.0 0.0 0.00 0.00 0.00 88 1017.2
20260901035836 80 128 0.0 0.0 0.00 0.00 0.00 88 1017.3
20260901035353 80 128 0.0 0.0 0.00 0.00 0.00 89 1017.4
20260901034830 80 128 0.0 0.0 0.00 0.00 0.00 89 1017.4
20260901034525 80 128 0.0 0.0 0.00 0.00 0.00 89 1017.3
20260901034327 80 128 0.0 0.0 0.00 0.00 0.00 89 1017.5
20260901033823 80 128 0.0 0.0 0.00 0.00 0.00 89 1017.4
20260901033318 80 130 0.0 1.0 0.00 0.00 0.00 89 1017.5
20260901033016 80 105 0.0 1.0 0.00 0.00 0.00 89 1017.5
20260901032814 81 154 0.0 0.0 0.00 0.00 0.00 89 1017.5
20260901032358 81 154 0.0 3.0 0.00 0.00 0.00 89 1017.5
20260901031853 81 154 1.0 3.0 0.00 0.00 0.00 89 1017.5
20260901031517 81 124 0.0 6.0 0.00 0.00 0.00 90 1017.4
20260901031330 81 129 1.0 6.0 0.00 0.00 0.00 90 1017.5
20260901030827 81 119 1.0 6.0 0.00 0.00 0.00 90 1017.7
20260901030323 81 356 0.0 0.0 0.00 0.00 0.00 90 1017.6
20260901030006 81 356 0.0 0.0 0.00 0.00 0.00 89 1017.6
20260901025821 81 356 0.0 0.0 0.00 0.00 0.00 89 1017.6
20260901025317 81 356 0.0 0.0 0.00 0.00 0.00 89 1017.7
20260901024815 81 356 0.0 0.0 0.00 0.00 0.00 89 1017.7
20260901024553 81 356 0.0 0.0 0.00 0.00 0.00 89 1017.7
20260901024332 81 356 0.0 0.0 0.00 0.00 0.00 89 1017.8
20260901023849 81 356 0.0 0.0 0.00 0.00 0.00 89 1017.8
20260901023324 81 2 0.0 0.0 0.00 0.00 0.00 88 1017.8
20260901023012 81 2 0.0 0.0 0.00 0.00 0.00 88 1017.8
20260901022821 81 13 0.0 0.0 0.00 0.00 0.00 88 1017.8
20260901022317 81 15 0.0 0.0 0.00 0.00 0.00 88 1017.8
20260901021814 81 15 0.0 0.0 0.00 0.00 0.00 88 1017.8
20260901021604 81 15 0.0 0.0 0.00 0.00 0.00 88 1017.6
20260901021332 81 15 0.0 0.0 0.00 0.00 0.00 88 1017.6
20260901020828 81 20 0.0 0.0 0.00 0.00 0.00 88 1017.4
20260901020325 81 20 0.0 0.0 0.00 0.00 0.00 88 1017.4
20260901020047 81 20 0.0 0.0 0.00 0.00 0.00 87 1017.3
20260901015822 82 20 0.0 0.0 0.00 0.00 0.00 87 1017.4
20260901015335 82 20 0.0 0.0 0.00 0.00 0.00 87 1017.3
20260901014853 82 20 0.0 0.0 0.00 0.00 0.00 88 1017.2
20260901014545 81 46 0.0 0.0 0.00 0.00 0.00 88 1017.1
20260901014328 82 46 0.0 0.0 0.00 0.00 0.00 88 1017.2
20260901013824 82 46 0.0 0.0 0.00 0.00 0.00 88 1017.1
20260901013321 81 46 0.0 0.0 0.00 0.00 0.00 88 1017.2
20260901013035 81 46 0.0 0.0 0.00 0.00 0.00 88 1017.1
20260901012817 82 46 0.0 0.0 0.00 0.00 0.00 88 1017.1
20260901012334 82 46 0.0 0.0 0.00 0.00 0.00 88 1017.1
20260901011830 82 46 0.0 0.0 0.00 0.00 0.00 88 1017.1
20260901011518 81 46 0.0 0.0 0.00 0.00 0.00 88 1017.1
20260901011329 82 46 0.0 1.0 0.00 0.00 0.00 88 1017.1
20260901010823 82 46 0.0 2.0 0.00 0.00 0.00 88 1017.0
20260901010321 82 46 0.0 3.0 0.00 0.00 0.00 88 1016.9
20260901010035 81 46 1.0 3.0 0.00 0.03 0.00 89 1016.8
20260901005837 82 46 0.0 2.0 0.00 0.03 0.00 89 1016.8
20260901005332 82 25 1.0 4.0 0.00 0.03 0.00 89 1016.7
20260901004829 82 24 1.0 4.0 0.00 0.03 0.00 89 1016.7
20260901004505 81 349 0.0 3.0 0.00 0.03 0.00 89 1016.7
20260901004345 82 336 1.0 2.0 0.00 0.03 0.00 89 1016.9
20260901003821 82 13 0.0 3.0 0.00 0.03 0.00 90 1016.9
20260901003317 82 337 0.0 2.0 0.00 0.03 0.00 90 1016.6
20260901003022 81 352 0.0 1.0 0.00 0.03 0.00 90 1016.5
20260901002836 82 6 0.0 1.0 0.00 0.03 0.00 90 1016.6
20260901002332 82 6 0.0 2.0 0.00 0.03 0.00 90 1016.7
20260901001831 82 356 1.0 2.0 0.00 0.03 0.00 90 1016.7
20260901001541 81 4 0.0 3.0 0.00 0.03 0.00 90 1016.5
20260901001348 82 339 1.0 3.0 0.00 0.03 0.00 90 1016.5
20260901000825 82 333 0.0 3.0 0.00 0.03 0.00 90 1016.6
20260901000322 82 349 0.0 4.0 0.00 0.03 0.00 89 1016.6
20260901000008 82 350 0.0 4.0 0.00 0.08 0.00 89 1016.4
20260831235839 82 349 1.0 4.0 0.00 0.08 0.00 89 1016.5
20260831235315 82 19 2.0 4.0 0.00 0.08 0.00 89 1016.4
20260831234832 82 349 1.0 3.0 0.00 0.08 0.00 89 1016.4
20260831234528 82 9 0.0 1.0 0.00 0.08 0.00 89 1016.4
20260831234328 82 37 0.0 1.0 0.00 0.08 0.00 89 1016.4
20260831233842 82 39 0.0 0.0 0.00 0.08 0.00 88 1016.4
20260831233317 83 39 0.0 0.0 0.00 0.08 0.00 88 1016.4
20260831233056 82 39 0.0 0.0 0.00 0.08 0.00 87 1016.3
20260831232815 83 39 0.0 0.0 0.00 0.08 0.00 87 1016.4
20260831232329 83 39 0.0 2.0 0.00 0.08 0.00 87 1016.4
20260831231826 83 39 0.0 2.0 0.00 0.08 0.00 86 1016.3
20260831231551 82 39 0.0 2.0 0.00 0.08 0.00 86 1016.2
20260831231322 83 10 0.0 0.0 0.00 0.08 0.00 86 1016.3
20260831230819 83 132 0.0 0.0 0.00 0.08 0.00 86 1016.3
20260831230316 83 135 0.0 0.0 0.00 0.08 0.00 87 1016.3
20260831230035 82 136 0.0 0.0 0.00 0.08 0.00 87 1016.2
20260831225833 83 135 0.0 0.0 0.00 0.08 0.00 87 1016.3
20260831225332 83 144 0.0 0.0 0.00 0.08 0.00 87 1016.3
20260831224829 83 144 0.0 0.0 0.00 0.08 0.00 87 1016.1
20260831224520 82 144 0.0 0.0 0.00 0.08 0.00 87 1016.0
20260831224326 83 144 0.0 0.0 0.00 0.08 0.00 87 1016.1
20260831223823 82 144 0.0 0.0 0.00 0.08 0.00 86 1016.2
20260831223340 83 144 0.0 0.0 0.00 0.08 0.00 86 1016.3
20260831223053 82 144 0.0 0.0 0.00 0.08 0.00 86 1016.3
20260831222834 83 144 0.0 0.0 0.00 0.08 0.00 86 1016.3
20260831222330 83 144 0.0 0.0 0.00 0.08 0.00 86 1016.4
20260831221827 83 144 0.0 0.0 0.00 0.08 0.00 86 1016.5
20260831221530 82 144 0.0 0.0 0.00 0.08 0.00 85 1016.4
20260831221323 83 144 0.0 0.0 0.00 0.08 0.00 85 1016.4
20260831220840 83 144 0.0 0.0 0.00 0.08 0.00 85 1016.2
20260831220315 83 144 0.0 0.0 0.00 0.08 0.00 85 1016.3
20260831220052 82 144 0.0 0.0 0.00 0.08 0.00 85 1016.3
20260831215831 83 144 0.0 0.0 0.00 0.08 0.00 85 1016.3
20260831215349 83 144 0.0 3.0 0.00 0.08 0.00 85 1016.4
20260831214826 83 144 1.0 3.0 0.00 0.08 0.00 85 1016.3
20260831214514 83 132 0.0 3.0 0.00 0.08 0.00 84 1016.2
20260831214323 83 132 0.0 3.0 0.00 0.08 0.00 84 1016.3
20260831213821 83 129 2.0 3.0 0.00 0.08 0.00 84 1016.3
20260831213010 82 122 0.0 3.0 0.00 0.08 0.00 84 1016.2
20260831212831 83 122 0.0 3.0 0.00 0.08 0.00 84 1016.4
20260831212326 83 98 1.0 8.0 0.00 0.08 0.00 84 1016.5
20260831211821 83 120 5.0 8.0 0.00 0.08 0.00 84 1016.5
20260831211554 83 118 4.0 8.0 0.00 0.08 0.00 84 1016.4
20260831211338 84 120 5.0 7.0 0.00 0.08 0.00 84 1016.5
20260831210833 84 82 2.0 6.0 0.00 0.08 0.00 84 1016.5
20260831210330 84 67 2.0 8.0 0.00 0.08 0.00 84 1016.4
20260831210016 84 155 3.0 8.0 0.00 0.08 0.00 84 1016.4
20260831205827 84 135 4.0 8.0 0.00 0.08 0.00 84 1016.5
20260831205323 84 120 4.0 10.0 0.00 0.08 0.00 84 1016.5
20260831204820 85 122 6.0 10.0 0.00 0.08 0.00 83 1016.4
20260831204504 86 77 3.0 9.0 0.00 0.08 0.00 83 1016.3
20260831204316 87 57 3.0 11.0 0.00 0.08 0.00 83 1016.5
20260831203831 87 34 7.0 12.0 0.00 0.08 0.00 82 1016.5
20260831203327 88 19 6.0 12.0 0.00 0.08 0.00 82 1016.4
20260831203050 87 344 5.0 10.0 0.00 0.08 0.00 82 1016.4
20260831202824 88 340 5.0 10.0 0.00 0.08 0.00 82 1016.5
20260831202320 88 359 5.0 9.0 0.00 0.08 0.00 81 1016.3
20260831201818 89 54 5.0 9.0 0.00 0.08 0.00 81 1016.2
20260831201542 88 335 6.0 9.0 0.00 0.08 0.00 81 1016.1
20260831201315 89 337 4.0 9.0 0.00 0.08 0.00 81 1016.1
20260831200829 89 5 4.0 8.0 0.00 0.08 0.00 81 1016.1
20260831200326 89 345 3.0 6.0 0.00 0.08 0.00 81 1016.3
20260831200032 88 338 3.0 8.0 0.00 0.08 0.00 81 1016.2
20260831195824 89 332 4.0 8.0 0.00 0.08 0.00 81 1016.2
20260831194841 88 16 5.0 10.0 0.00 0.08 0.00 81 1015.9
20260831194635 87 329 5.0 9.0 0.00 0.08 0.00 81 1015.7
20260831194337 88 58 5.0 8.0 0.00 0.08 0.00 81 1015.9
20260831193833 88 14 5.0 9.0 0.00 0.08 0.00 81 1016.0
20260831193329 88 330 5.0 9.0 0.00 0.08 0.00 81 1016.2
20260831193017 87 8 4.0 9.0 0.00 0.08 0.00 80 1016.1
20260831192826 88 333 4.0 9.0 0.00 0.08 0.00 80 1016.4
20260831192321 88 331 4.0 9.0 0.00 0.08 0.00 80 1016.7
20260831191837 88 6 4.0 9.0 0.00 0.08 0.00 81 1016.6
20260831191538 88 342 4.0 8.0 0.00 0.08 0.00 81 1016.5
20260831191314 88 339 4.0 8.0 0.00 0.08 0.00 81 1016.5
20260831190830 88 351 4.0 10.0 0.00 0.08 0.00 81 1016.4
20260831190327 88 339 6.0 10.0 0.00 0.08 0.00 81 1016.3
20260831190112 87 4 5.0 10.0 0.00 0.08 0.00 81 1016.2
20260831185822 88 23 4.0 7.0 0.00 0.08 0.00 81 1016.4
20260831185338 87 37 3.0 9.0 0.00 0.08 0.00 81 1016.6
20260831184833 87 345 5.0 9.0 0.00 0.08 0.00 81 1016.6
20260831184515 86 357 4.0 7.0 0.00 0.08 0.00 82 1016.5
20260831184329 86 36 4.0 6.0 0.00 0.08 0.00 82 1016.7
20260831183826 86 1 3.0 8.0 0.00 0.08 0.00 82 1016.9
20260831183322 86 346 3.0 8.0 0.00 0.08 0.00 82 1016.8
20260831183003 86 343 4.0 8.0 0.00 0.08 0.00 81 1016.8
20260831182817 86 346 4.0 9.0 0.00 0.08 0.00 81 1016.9
20260831182333 87 5 5.0 12.0 0.00 0.08 0.00 80 1017.1
20260831181830 88 45 6.0 11.0 0.00 0.08 0.00 80 1017.0
20260831181547 87 23 5.0 9.0 0.00 0.08 0.00 80 1017.0
20260831181347 88 35 4.0 9.0 0.00 0.08 0.00 80 1017.2
20260831180821 87 32 6.0 8.0 0.00 0.08 0.00 80 1017.3
20260831180338 87 21 4.0 8.0 0.00 0.08 0.00 81 1017.3
20260831180009 86 23 3.0 8.0 0.00 0.08 0.00 81 1017.2
20260831175853 87 18 5.0 8.0 0.00 0.08 0.00 81 1017.4
20260831175325 87 345 4.0 10.0 0.00 0.08 0.00 82 1017.5
20260831174822 86 354 2.0 11.0 0.00 0.08 0.00 82 1017.5
20260831174530 86 4 7.0 11.0 0.00 0.08 0.00 81 1017.4
20260831174335 87 7 7.0 10.0 0.00 0.08 0.00 81 1017.3
20260831173831 88 354 5.0 8.0 0.00 0.08 0.00 80 1017.5
20260831173328 89 344 5.0 8.0 0.00 0.08 0.00 80 1017.5
20260831173058 89 20 1.0 7.0 0.00 0.08 0.00 80 1017.3
20260831172843 89 39 2.0 7.0 0.00 0.08 0.00 80 1017.4
20260831172319 89 98 3.0 7.0 0.00 0.08 0.00 79 1017.4
20260831171816 90 137 3.0 5.0 0.00 0.08 0.00 79 1017.4
20260831171514 90 111 2.0 5.0 0.00 0.08 0.00 79 1017.3
20260831171334 90 145 3.0 5.0 0.00 0.08 0.00 79 1017.4
20260831170852 89 135 0.0 6.0 0.00 0.08 0.00 81 1017.3
20260831170326 89 125 2.0 8.0 0.00 0.08 0.00 80 1017.4
20260831170040 89 129 3.0 8.0 0.00 0.08 0.00 80 1017.3
20260831165822 89 105 3.0 8.0 0.00 0.08 0.00 80 1017.4
20260831165319 89 101 3.0 7.0 0.00 0.08 0.00 80 1017.4
20260831164815 89 124 2.0 6.0 0.00 0.08 0.00 81 1017.5
20260831164519 88 148 1.0 7.0 0.00 0.08 0.00 82 1017.4
20260831164330 88 129 2.0 9.0 0.00 0.08 0.00 81 1017.6
20260831163827 89 127 2.0 9.0 0.00 0.08 0.00 81 1017.6
20260831163324 89 126 2.0 7.0 0.00 0.08 0.00 81 1017.6
20260831163010 88 106 1.0 7.0 0.00 0.08 0.00 81 1017.5
20260831162819 88 125 3.0 7.0 0.00 0.08 0.00 81 1017.6
20260831162315 89 153 3.0 8.0 0.00 0.08 0.00 81 1017.6
20260831161832 89 102 2.0 8.0 0.00 0.08 0.00 81 1017.7
20260831161601 89 115 1.0 4.0 0.00 0.08 0.00 80 1017.6
20260831161501 89 146 1.0 4.0 0.00 0.08 0.00 80 1017.6
20260831161329 89 149 2.0 4.0 0.00 0.08 0.00 81 1017.8
20260831160847 89 125 2.0 4.0 0.00 0.08 0.00 81 1017.9
20260831160343 89 136 1.0 6.0 0.00 0.08 0.00 81 1018.0
20260831160104 88 140 2.0 6.0 0.00 0.08 0.00 81 1017.9
20260831155818 89 115 2.0 6.0 0.00 0.09 0.00 81 1018.0
20260831155334 89 219 1.0 5.0 0.00 0.09 0.00 82 1018.1
20260831154831 90 151 3.0 5.0 0.00 0.09 0.00 81 1018.1
20260831154536 89 188 1.0 5.0 0.00 0.09 0.00 81 1017.9
20260831154327 89 153 2.0 5.0 0.00 0.09 0.00 82 1018.1
20260831153844 89 131 1.0 6.0 0.00 0.09 0.00 82 1018.2
20260831153319 89 146 2.0 7.0 0.00 0.09 0.00 82 1018.2
20260831153101 88 161 3.0 7.0 0.00 0.09 0.00 82 1018.1
20260831153001 88 139 4.0 7.0 0.00 0.09 0.00 82 1018.1
20260831152817 88 127 3.0 6.0 0.00 0.09 0.00 82 1018.2
20260831152335 88 133 2.0 6.0 0.00 0.09 0.00 82 1018.3
20260831151852 88 135 1.0 6.0 0.00 0.09 0.00 82 1018.2
20260831151523 87 141 2.0 6.0 0.00 0.09 0.00 82 1018.2
20260831151328 87 131 2.0 6.0 0.00 0.09 0.00 82 1018.2
20260831150825 88 113 2.0 4.0 0.00 0.09 0.00 82 1018.1
20260831150323 88 103 1.0 3.0 0.00 0.09 0.00 82 1018.1
20260831150012 87 127 0.0 3.0 0.00 0.09 0.00 82 1017.9
20260831145834 87 127 0.0 3.0 0.00 0.09 0.00 82 1018.0
20260831145350 87 122 2.0 3.0 0.00 0.09 0.00 82 1018.0
20260831144826 87 124 1.0 4.0 0.00 0.09 0.00 82 1018.0
20260831144534 87 71 1.0 4.0 0.00 0.09 0.00 82 1017.9
20260831144316 87 65 1.0 4.0 0.00 0.09 0.00 82 1018.0
20260831143815 87 86 2.0 6.0 0.00 0.09 0.00 82 1018.1
20260831143331 87 84 2.0 6.0 0.00 0.09 0.00 82 1018.0
20260831143019 87 134 2.0 6.0 0.00 0.09 0.00 82 1017.9
20260831142828 88 134 2.0 5.0 0.00 0.09 0.00 82 1018.0
20260831142325 88 51 1.0 4.0 0.00 0.09 0.00 82 1017.9
20260831141822 88 229 1.0 5.0 0.00 0.09 0.00 82 1017.9
20260831141614 88 129 2.0 5.0 0.00 0.09 0.00 82 1017.7
20260831141319 88 129 1.0 5.0 0.00 0.09 0.00 82 1018.0
20260831140817 89 129 1.0 4.0 0.00 0.09 0.00 82 1018.1
20260831140333 89 81 0.0 3.0 0.00 0.09 0.00 82 1017.9
20260831140046 89 122 0.0 3.0 0.00 0.09 0.00 82 1017.7
20260831135829 89 122 1.0 3.0 0.00 0.09 0.00 82 1017.8
20260831135324 89 119 0.0 2.0 0.00 0.09 0.00 82 1017.8
20260831134820 90 135 0.0 1.0 0.00 0.09 0.00 82 1017.8
20260831134541 89 70 0.0 0.0 0.00 0.09 0.00 84 1017.7
20260831134316 88 70 0.0 0.0 0.00 0.09 0.00 84 1017.7
20260831133900 87 70 0.0 0.0 0.00 0.09 0.00 84 1017.7
20260831133355 86 72 0.0 1.0 0.00 0.09 0.00 84 1017.9
20260831133037 86 72 0.0 1.0 0.00 0.09 0.00 86 1017.7
20260831132831 86 72 0.0 1.0 0.00 0.09 0.00 85 1017.6
20260831132327 86 134 0.0 1.0 0.00 0.09 0.00 88 1017.5
20260831131821 85 133 0.0 1.0 0.00 0.09 0.00 90 1017.5
20260831131524 84 134 0.0 0.0 0.00 0.09 0.00 91 1017.4
20260831131318 84 134 0.0 0.0 0.00 0.09 0.00 92 1017.5
20260831130834 83 134 0.0 0.0 0.00 0.09 0.00 93 1017.5
20260831130331 82 134 0.0 0.0 0.00 0.09 0.00 93 1017.4
20260831130009 81 134 0.0 1.0 0.00 0.09 0.00 94 1017.1
20260831125827 82 134 0.0 1.0 0.00 0.09 0.00 94 1017.3
20260831125323 81 134 0.0 2.0 0.00 0.09 0.00 94 1017.3
20260831124818 80 134 0.0 1.0 0.00 0.09 0.00 94 1017.2
20260831124608 80 358 0.0 2.0 0.00 0.09 0.00 94 1017.0
20260831124333 80 349 0.0 2.0 0.00 0.09 0.00 94 1017.0
20260831123827 79 328 0.0 1.0 0.00 0.09 0.00 94 1017.1
20260831123325 79 359 0.0 0.0 0.00 0.09 0.00 94 1017.1
20260831123044 78 359 0.0 0.0 0.00 0.09 0.00 94 1017.0
20260831122821 78 359 0.0 0.0 0.00 0.09 0.00 94 1017.1
20260831122319 78 1 0.0 1.0 0.00 0.09 0.00 94 1017.0
20260831121816 78 352 0.0 1.0 0.00 0.09 0.00 94 1017.0
20260831121531 78 352 0.0 1.0 0.00 0.09 0.00 94 1016.8
20260831121333 78 349 0.0 0.0 0.00 0.09 0.00 94 1016.9
20260831120831 78 349 0.0 0.0 0.00 0.09 0.00 94 1016.8
20260831120329 78 349 0.0 0.0 0.00 0.09 0.00 94 1016.7
20260831120023 77 349 0.0 0.0 0.00 0.09 0.00 94 1016.6
20260831115828 78 349 0.0 0.0 0.00 0.09 0.00 94 1016.7
20260831115326 78 349 0.0 0.0 0.00 0.09 0.00 94 1016.7
20260831114822 78 349 0.0 0.0 0.00 0.09 0.00 94 1016.7
20260831114559 77 349 0.0 0.0 0.00 0.09 0.00 94 1016.5
20260831114501 77 349 0.0 0.0 0.00 0.09 0.00 94 1016.5
20260831114319 78 349 0.0 0.0 0.00 0.09 0.00 94 1016.6
20260831113814 78 349 0.0 0.0 0.00 0.09 0.00 94 1016.6
20260831113330 77 349 0.0 0.0 0.00 0.09 0.00 94 1016.5
20260831113053 77 349 0.0 0.0 0.00 0.09 0.00 94 1016.4
20260831112827 77 349 0.0 0.0 0.00 0.09 0.00 94 1016.4
20260831112323 77 349 0.0 0.0 0.00 0.09 0.00 94 1016.4
20260831111550 77 347 0.0 0.0 0.00 0.09 0.00 94 1016.1
20260831111330 77 347 0.0 0.0 0.00 0.09 0.00 94 1016.2
20260831110827 77 347 0.0 0.0 0.00 0.09 0.00 94 1016.2
20260831110325 77 347 0.0 0.0 0.00 0.09 0.00 94 1016.2